TimeCDT,TemperatureF,Dew PointF,Humidity,Sea Level PressureIn,VisibilityMPH,Wind Direction,Wind SpeedMPH,Gust SpeedMPH,PrecipitationIn,Events,Conditions,WindDirDegrees,DateUTC
12:15 AM,80.8,77.9,91,29.90,7.0,SSE,4.6,-,N/A,,Clear,160,2013-08-09 05:15:00
12:35 AM,80.2,77.5,91,29.90,7.0,South,4.6,-,N/A,,Clear,170,2013-08-09 05:35:00
12:55 AM,79.7,77.4,93,29.90,7.0,South,4.6,-,N/A,,Clear,180,2013-08-09 05:55:00
1:15 AM,79.2,77.2,94,29.90,7.0,South,4.6,-,N/A,,Clear,180,2013-08-09 06:15:00
1:35 AM,78.8,77.0,94,29.90,7.0,South,3.5,-,N/A,,Clear,170,2013-08-09 06:35:00
1:55 AM,78.8,77.2,95,29.90,7.0,SSE,4.6,-,N/A,,Mostly Cloudy,160,2013-08-09 06:55:00
2:15 AM,79.0,77.2,94,29.90,7.0,South,4.6,-,N/A,,Overcast,170,2013-08-09 07:15:00
2:35 AM,79.0,77.2,94,29.90,7.0,South,4.6,-,N/A,,Overcast,190,2013-08-09 07:35:00
2:55 AM,79.0,77.2,94,29.90,7.0,South,4.6,-,N/A,,Overcast,190,2013-08-09 07:55:00
3:15 AM,79.7,77.5,93,29.90,7.0,South,6.9,-,N/A,,Overcast,190,2013-08-09 08:15:00
3:35 AM,80.2,77.9,93,29.90,7.0,SSW,5.8,-,N/A,,Overcast,200,2013-08-09 08:35:00
3:55 AM,80.2,77.9,93,29.91,7.0,SW,4.6,-,N/A,,Overcast,220,2013-08-09 08:55:00
4:15 AM,80.1,77.7,93,29.90,7.0,South,4.6,-,N/A,,Mostly Cloudy,190,2013-08-09 09:15:00
4:35 AM,79.0,77.0,94,29.90,7.0,South,4.6,-,N/A,,Scattered Clouds,170,2013-08-09 09:35:00
4:55 AM,78.8,77.0,94,29.90,7.0,South,4.6,-,N/A,,Mostly Cloudy,170,2013-08-09 09:55:00
5:15 AM,78.8,77.0,94,29.90,7.0,South,3.5,-,N/A,,Mostly Cloudy,190,2013-08-09 10:15:00
5:35 AM,78.8,77.0,94,29.90,7.0,Calm,Calm,-,N/A,,Scattered Clouds,0,2013-08-09 10:35:00
5:55 AM,78.1,76.1,94,29.90,5.0,SSE,3.5,-,N/A,,Scattered Clouds,160,2013-08-09 10:55:00
6:15 AM,78.8,77.0,94,29.90,5.0,South,4.6,-,N/A,,Mostly Cloudy,180,2013-08-09 11:15:00
6:35 AM,79.0,77.0,94,29.91,5.0,Calm,Calm,-,N/A,,Overcast,0,2013-08-09 11:35:00
6:55 AM,79.0,77.0,94,29.92,7.0,Calm,Calm,-,N/A,,Overcast,0,2013-08-09 11:55:00
7:15 AM,79.0,77.0,94,29.93,5.0,Calm,Calm,-,N/A,,Overcast,0,2013-08-09 12:15:00
7:35 AM,79.3,77.0,93,29.93,5.0,South,4.6,-,N/A,,Overcast,170,2013-08-09 12:35:00
7:55 AM,79.7,77.0,91,29.93,5.0,South,4.6,-,N/A,,Overcast,170,2013-08-09 12:55:00
8:15 AM,80.2,77.0,90,29.94,5.0,SW,5.8,-,N/A,,Mostly Cloudy,220,2013-08-09 13:15:00
8:35 AM,81.5,77.0,86,29.94,7.0,SSW,8.1,-,N/A,,Mostly Cloudy,200,2013-08-09 13:35:00
8:55 AM,81.7,76.8,85,29.94,5.0,SW,5.8,-,N/A,,Haze,220,2013-08-09 13:55:00
9:15 AM,83.1,76.3,80,29.95,5.0,SW,8.1,-,N/A,,Haze,230,2013-08-09 14:15:00
9:35 AM,84.4,75.4,74,29.96,7.0,South,5.8,-,N/A,,Scattered Clouds,180,2013-08-09 14:35:00
9:55 AM,85.5,74.7,70,29.95,7.0,South,6.9,-,N/A,,Scattered Clouds,180,2013-08-09 14:55:00
10:15 AM,86.9,74.5,66,29.95,7.0,South,9.2,-,N/A,,Scattered Clouds,180,2013-08-09 15:15:00
10:35 AM,87.1,73.0,63,29.96,7.0,South,4.6,-,N/A,,Scattered Clouds,190,2013-08-09 15:35:00
10:55 AM,87.8,73.0,61,29.96,7.0,SSE,4.6,-,N/A,,Clear,160,2013-08-09 15:55:00
11:15 AM,90.1,73.2,57,29.95,7.0,SSE,4.6,-,N/A,,Clear,160,2013-08-09 16:15:00
11:35 AM,90.0,73.4,58,29.95,7.0,Calm,Calm,-,N/A,,Clear,0,2013-08-09 16:35:00
11:55 AM,91.2,70.5,51,29.95,7.0,West,5.8,-,N/A,,Clear,280,2013-08-09 16:55:00
12:15 PM,94.3,70.2,45,29.94,7.0,South,5.8,-,N/A,,Clear,170,2013-08-09 17:15:00
12:35 PM,94.3,68.0,42,29.94,7.0,South,5.8,-,N/A,,Clear,170,2013-08-09 17:35:00
12:55 PM,95.7,66.2,38,29.93,7.0,Calm,Calm,-,N/A,,Clear,0,2013-08-09 17:55:00
1:15 PM,95.5,68.4,41,29.93,7.0,South,5.8,-,N/A,,Clear,180,2013-08-09 18:15:00
1:35 PM,97.3,66.7,37,29.92,7.0,ESE,5.8,-,N/A,,Clear,110,2013-08-09 18:35:00
1:55 PM,98.1,64.9,34,29.92,7.0,ESE,4.6,-,N/A,,Clear,120,2013-08-09 18:55:00
2:15 PM,100.6,66.4,33,29.91,7.0,SSE,5.8,-,N/A,,Clear,150,2013-08-09 19:15:00
2:35 PM,100.0,65.8,33,29.91,10.0,SSW,5.8,-,N/A,,Clear,210,2013-08-09 19:35:00
2:55 PM,100.2,66.4,33,29.89,7.0,SE,4.6,-,N/A,,Clear,130,2013-08-09 19:55:00
3:15 PM,101.5,65.3,31,29.89,10.0,SE,4.6,-,N/A,,Clear,140,2013-08-09 20:15:00
3:35 PM,100.4,66.4,33,29.88,10.0,ESE,5.8,-,N/A,,Clear,110,2013-08-09 20:35:00
3:55 PM,100.9,66.0,32,29.87,10.0,SSE,6.9,-,N/A,,Clear,160,2013-08-09 20:55:00
4:15 PM,100.6,65.7,32,29.86,10.0,SW,3.5,-,N/A,,Clear,230,2013-08-09 21:15:00
4:35 PM,102.2,65.1,30,29.86,10.0,Calm,Calm,-,N/A,,Clear,0,2013-08-09 21:35:00
4:55 PM,102.0,65.5,30,29.86,10.0,SE,6.9,-,N/A,,Clear,140,2013-08-09 21:55:00
5:15 PM,102.2,67.1,32,29.85,10.0,South,4.6,-,N/A,,Clear,190,2013-08-09 22:15:00
5:35 PM,102.0,68.2,33,29.85,10.0,WSW,3.5,-,N/A,,Clear,240,2013-08-09 22:35:00
5:55 PM,102.4,67.5,32,29.85,10.0,ESE,6.9,-,N/A,,Clear,120,2013-08-09 22:55:00
6:15 PM,102.7,67.3,32,29.84,10.0,NE,4.6,-,N/A,,Clear,50,2013-08-09 23:15:00
6:35 PM,101.7,67.5,33,29.84,10.0,SE,8.1,-,N/A,,Clear,130,2013-08-09 23:35:00
6:55 PM,101.7,66.9,32,29.84,10.0,SSE,5.8,-,N/A,,Clear,150,2013-08-09 23:55:00
7:15 PM,100.6,67.6,34,29.84,10.0,ESE,6.9,-,N/A,,Clear,120,2013-08-10 00:15:00
7:35 PM,99.7,68.2,36,29.84,10.0,SE,8.1,-,N/A,,Clear,130,2013-08-10 00:35:00
7:55 PM,99.0,68.9,38,29.86,10.0,ESE,5.8,-,N/A,,Clear,120,2013-08-10 00:55:00
8:15 PM,97.3,68.9,39,29.86,10.0,SE,4.6,-,N/A,,Clear,130,2013-08-10 01:15:00
8:35 PM,95.9,69.8,43,29.87,10.0,SE,3.5,-,N/A,,Clear,130,2013-08-10 01:35:00
8:55 PM,95.0,71.1,46,29.88,10.0,SE,4.6,-,N/A,,Clear,130,2013-08-10 01:55:00
9:15 PM,94.8,71.6,47,29.89,10.0,ESE,3.5,-,N/A,,Clear,120,2013-08-10 02:15:00
9:35 PM,93.6,76.6,58,29.91,10.0,SSE,10.4,-,N/A,,Clear,160,2013-08-10 02:35:00
9:55 PM,92.3,77.4,62,29.92,10.0,SSE,12.7,-,N/A,,Clear,160,2013-08-10 02:55:00
10:15 PM,91.2,77.2,63,29.93,10.0,SSE,9.2,-,N/A,,Clear,150,2013-08-10 03:15:00
10:35 PM,90.1,76.3,64,29.94,10.0,South,10.4,-,N/A,,Clear,170,2013-08-10 03:35:00
10:55 PM,89.1,76.3,66,29.95,10.0,South,9.2,-,N/A,,Clear,170,2013-08-10 03:55:00
11:15 PM,88.3,76.8,69,29.96,10.0,South,9.2,-,N/A,,Clear,170,2013-08-10 04:15:00
11:35 PM,87.6,77.0,71,29.96,10.0,South,8.1,-,N/A,,Clear,180,2013-08-10 04:35:00
11:55 PM,86.9,77.5,74,29.96,10.0,South,9.2,-,N/A,,Clear,170,2013-08-10 04:55:00